Flag for Greenland Weather past 2 weeks in Nuuk, Greenland

Now
25 °F

Overcast.


Feels Like: 18 °F
Forecast: 26 / 30 °F
Wind: 6 mph from Southeast

Location: Godthaab / Nuuk

Current Time: Apr 27, 2015 at 7:04:08 AM

Latest Report: Apr 27, 2015 at 5:50 AM


Visibility: N/A

Pressure: 30.39 "Hg

Humidity: 80%

Dew point: 19 °F

Location of NuukLocation

Historic Weather in Nuuk — Graph

°F

Nuuk temperature yesterday

Maximum temperature yesterday: 28 °F (at 1:50 PM)
Minimum temperature yesterday: 21 °F (at 12:50 AM)
Average temperature yesterday: 25 °F

Past Weeks' High & Low Weather Summary

 TemperatureHumidityPressure
High37 °F (Apr 14, 7:50 PM)100% (Apr 14, 7:50 AM)30.42 "Hg (Apr 14, 7:50 AM)
Low10 °F (Apr 15, 10:50 PM)52% (Apr 18, 1:50 AM)28.65 "Hg (Apr 15, 8:50 AM)
Average22 °F78%29.83 "Hg
* Reported Apr 12 5:50 AM — Apr 27 5:50 AM, Nuuk, Weather by CustomWeather, © 2015

Note: Actual official high and low records may vary slightly from our data, if they occured in-between our weather recording intervals... More about our weather records

Advertising

Nuuk weather history for previous 24 hours

 ConditionsComfort  
Time TempWeatherWind HumidityBarometerVisibility
5:50 AM
Mon, Apr 27
25 °FOvercast.N/A80%30.39 "HgN/A
4:50 AM23 °FPassing clouds.N/A86%30.39 "HgN/A
3:50 AM23 °FPassing clouds.N/A86%30.39 "HgN/A
2:50 AM23 °FPassing clouds.N/A86%30.39 "HgN/A
1:50 AM23 °FPassing clouds.N/A93%30.39 "HgN/A
12:50 AM23 °FPassing clouds.N/A86%30.39 "HgN/A
11:50 PM
Sun, Apr 26
23 °FPassing clouds.N/A86%30.42 "HgN/A
10:50 PM23 °FPassing clouds.N/A86%30.42 "HgN/A
9:50 PM25 °FCold.N/A86%30.42 "HgN/A
8:50 PM27 °FChilly.N/A80%30.42 "HgN/A
7:50 PM27 °FChilly.N/A86%30.42 "HgN/A
6:50 PM28 °FChilly.N/A80%30.42 "HgN/A
5:50 PM28 °FPassing clouds.N/A80%30.42 "HgN/A
4:50 PM28 °FChilly.N/A80%30.42 "HgN/A
3:50 PM27 °FChilly.6 mph80%30.42 "HgN/A
2:50 PM28 °FPassing clouds.8 mph80%30.42 "HgN/A
1:50 PM28 °FPassing clouds.10 mph80%30.39 "HgN/A
12:50 PM27 °FPassing clouds.6 mph86%30.42 "HgN/A
11:50 AM27 °FPassing clouds.9 mph80%30.39 "HgN/A
10:50 AM27 °FPassing clouds.8 mph80%30.39 "HgN/A
9:50 AM25 °FScattered clouds.6 mph80%30.39 "HgN/A
8:50 AM23 °FPassing clouds.6 mph74%30.36 "HgN/A
7:50 AM21 °FPartly sunny.6 mph80%30.36 "HgN/A
Weather by CustomWeather, © 2015

See weather overviewHow to use our weather pages